User: anonymous   Login
Location: ???? ????
(31.2831°N, 45.5190°E)
Time: 23:45:30
(UTC+00:00)
Language:

Meteor 1-20 Rocket - Orbit

View from above orbital plane
View from above orbital plane
View from above satellite
View from above satellite

Ground track
Ground track

The orbit data is extracted from the following two-line orbital elements,

1 07575U 74099B   21138.55061025 -.00000018  00000-0 -16966-4 0  9995
2 07575  81.2463 358.2017 0049983 171.2620 188.9434 14.11088213388249
Epoch (UTC): 18 May 2021 13:12:52
Eccentricity: 0.0049983
inclination: 81.2463°
perigee height: 819 km
apogee height: 892 km
right ascension of ascending node: 358.2017°
argument of perigee: 171.2620°
revolutions per day: 14.11088213
mean anomaly at epoch: 188.9434°
orbit number at epoch: 38824

The dashed part of the orbit path shows where the satellite is in the earth's shadow,  

DLR